Content
SEND FEEDBACK

Daily
Averages
Monthly
Summary
United States of America

BROOKLINE, MASSACHUSETTS


Home > North America > United States > Massachusetts
Elevation: 118 feet     Latitude: 42 24N     Longitude: 071 06W

WEATHER
 
SELECT A DAY
Number of Records: 202,449;   Date Range: 1/1/95 - 7/20/14
 
SHARE

PRINT THIS DATA

[ ← Previous Day ]
WEATHER ALMANAC - SEPTEMBER 25, 2013
[ Next Day → ]
[ °C ]   °F
Weather ElementAverageHighLow
Temperature57.7 °F62.1 °F (12:54 pm)53.1 °F (3:54 am)
Dewpoint44.4 °F46.9 °F (7:54 pm)42.1 °F (1:54 am)
Humidity61.7 %69 % (3:54 am)52 % (2:54 pm)
Barometer29.92 in29.99 in (11:54 pm)29.89 in (3:54 am)
Wind Speed7.6 mph12.7 mph (8:54 am)
Weather ElementAverage
Visibility10 mi
Wind DirectionS (183 °)

Weather ElementTotal
Precipitation---
Heating Degree Days7.4 (Base 65)
Growing Degree Days7.6 (Base 50)
Averaged from 23 records on September 25, 2013
WEATHER CONDITIONS BREAKOUT
WIND DIRECTION BREAKOUT
WEATHER BY HOUR - SEPTEMBER 25, 2013
[ °C ]   °F
Local TimeTemperatureDewpointHumidityBarometerVisibilityWind DirectionWind SpeedGust SpeedPrecipitationEventsConditions
1:54 AM55.0 °F42.1 °F62 %29.91 in10.0 miWest (270°)4.6 mphOvercast
2:54 AM54.0 °F42.1 °F64 %29.90 in10.0 miWNW (290°)6.9 mphClear
3:54 AM53.1 °F43.0 °F69 %29.89 in10.0 miWest (280°)4.6 mphClear
4:54 AM53.1 °F42.1 °F66 %29.89 in10.0 miWNW (290°)9.2 mphClear
5:54 AM53.1 °F42.1 °F66 %29.89 in10.0 miWNW (300°)6.9 mphClear
6:54 AM53.1 °F42.1 °F66 %29.89 in10.0 miWest (280°)11.5 mphPartly Cloudy
7:54 AM55.0 °F42.1 °F62 %29.89 in10.0 miWNW (290°)10.4 mphClear
8:54 AM57.9 °F43.0 °F58 %29.91 in10.0 miNW (320°)12.7 mphClear
9:54 AM59.0 °F44.1 °F58 %29.93 in10.0 miNorth (360°)9.2 mphPartly Cloudy
10:54 AM61.0 °F45.0 °F56 %29.93 in10.0 miNE (40°)10.4 mphPartly Cloudy
11:54 AM61.0 °F46.0 °F58 %29.92 in10.0 miEast (90°)9.2 mphScattered Clouds
12:54 PM62.1 °F45.0 °F53 %29.91 in10.0 miEast (80°)10.4 mphScattered Clouds
1:54 PM61.0 °F45.0 °F56 %29.91 in10.0 miEast (100°)11.5 mphScattered Clouds
2:54 PM62.1 °F44.1 °F52 %29.91 in10.0 miSE (130°)12.7 mphScattered Clouds
3:54 PM59.0 °F45.0 °F60 %29.91 in10.0 miESE (110°)10.4 mphOvercast
4:54 PM57.9 °F46.0 °F65 %29.91 in10.0 miEast (100°)9.2 mphOvercast
5:54 PM57.9 °F46.0 °F65 %29.92 in10.0 miEast (90°)8.1 mphOvercast
6:54 PM57.9 °F46.0 °F65 %29.94 in10.0 miEast (100°)5.8 mphOvercast
7:54 PM57.9 °F46.9 °F67 %29.95 in10.0 miCalmOvercast
8:54 PM57.9 °F46.0 °F65 %29.96 in10.0 miCalmMostly Cloudy
9:54 PM57.9 °F46.9 °F67 %29.97 in10.0 miCalmMostly Cloudy
10:54 PM60.1 °F45.0 °F57 %29.98 in10.0 miNNW (330°)5.8 mphOvercast
11:54 PM59.0 °F46.0 °F62 %29.99 in10.0 miNorth (360°)4.6 mphOvercast
Hourly data recorded from KBOS, located miles away from Brookline, Massachusetts







STORIES FROM OUR PARTNERS